Powrót do katalogu

SBS 5

AktywnyŁącznośćGEO
NORAD 19484·PAYLOAD·🇺🇸 United States

Wystrzelony Sep 8, 1988 z Guiana Space Centre

Loading…

TLE

ŚwieżeSource: Space-Track

Epoka: Sep 9, 2026, 21:08 UTC

1 19484U 88081B   26252.88101741  .00000089  00000-0  00000+0 0  9994
2 19484  14.6238   0.2736 0005980 309.6283  48.0997  0.99785949 47304

Śledź SBS 5 w czasie rzeczywistym z AllMySat

Download on the App Store